STARLINK-1664 (46553 NORAD) Tracking and Keplerian Element Data

This shows tracking and keplerian element data for the satellite.

Feedback or suggestion? Click here.




ElementValue
Catalog46553
NameSTARLINK-1664
Epoch Orbit177
Epoch Day304.91667824
Epoch Year2020
RAAN321.922
Inclination53
Eccentricity0.0001087
Argument of Perigee71.0177
Mean Anonmoly196.5821
Mean Motion15.62756954
Decay Rate-0.0002916
L11 46553U 20070X 20304.91667824 -.00029160 00000-0 -31372-3 0 9993
L22 46553 53.0000 321.9220 0001087 71.0177 196.5821 15.62756954 1778

Live tracking and technical data element details for STARLINK-1664 (NORAD 46553). STARLINK-1664 can be tracked NOW for your location showing map with azimuth and elevation plus other details from your city location.

Track the satellite on the map from your city or location and see movement details for azimuth, elevation, latitude, longitude, range, height, and movement on the map or in text.







IsCatalogInMostPopularTable: catalog: 46553, numindb: 3
Update: records affected: 1



GetName: 46553 STARLINK-1664

Hit Count: updated at: Sat, 31 Oct 2020 10:16:39 GMT